{"data":{"norad_id":64010,"epoch":"2026-05-24T17:51:26.911008Z","epoch_age_seconds":93034,"freshness":"FRESH","line1":"1 64010U 25101S   26144.74406147  .00013617  00000+0  50335-3 0  9996","line2":"2 64010  42.9982 288.7189 0001129 272.6276  87.4446 15.27585364 58681","mean_motion":15.27585364,"eccentricity":0.0001129,"inclination_deg":42.9982,"raan_deg":288.7189,"arg_perigee_deg":272.6276,"mean_anomaly_deg":87.4446,"bstar":0.00050335,"rev_number":5868,"period_min":94.266417703122,"perigee_km":482.25840824409,"apogee_km":483.80766043784,"semimajor_km":6861.170034341,"source":"CELESTRAK","updated_at":"2026-05-25T13:38:20.221063Z"}}